Time,TemperatureF,DewpointF,PressureIn,WindDirection,WindDirectionDegrees,WindSpeedMPH,WindSpeedGustMPH,Humidity,HourlyPrecipIn,Conditions,Clouds,dailyrainin,SolarRadiationWatts/m^2,SoftwareType,DateUTC
2013-02-13 00:01:00,35.0,28.0,-100.00,NNW,333,8.0,35.0,74,0.00,,,0.00,0.000000,,2013-02-13 08:01:00,
2013-02-13 00:11:00,35.0,28.0,-100.00,NNW,333,8.0,35.0,74,0.00,,,0.00,0.000000,,2013-02-13 08:11:00,
2013-02-13 00:21:00,35.0,28.0,-100.00,NNW,333,8.0,35.0,74,0.00,,,0.00,0.000000,,2013-02-13 08:21:00,
2013-02-13 00:31:00,35.0,28.0,-100.00,NNW,333,8.0,35.0,74,0.00,,,0.00,0.000000,,2013-02-13 08:31:00,
2013-02-13 00:52:00,36.0,28.0,-100.00,NNW,333,8.0,26.0,73,0.00,,,0.00,0.000000,,2013-02-13 08:52:00,
2013-02-13 01:01:00,36.0,28.0,-100.00,NNW,333,8.0,26.0,73,0.00,,,0.00,0.000000,,2013-02-13 09:01:00,
2013-02-13 01:11:00,36.0,28.0,-100.00,NNW,333,8.0,26.0,73,0.00,,,0.00,0.000000,,2013-02-13 09:11:00,
2013-02-13 01:21:00,36.0,28.0,-100.00,NNW,333,8.0,26.0,73,0.00,,,0.00,0.000000,,2013-02-13 09:21:00,
2013-02-13 01:31:00,36.0,28.0,-100.00,NNW,333,8.0,26.0,73,0.00,,,0.00,0.000000,,2013-02-13 09:31:00,
2013-02-13 01:52:00,35.0,26.0,-100.00,NNW,336,8.0,21.0,70,0.00,,,0.00,0.000000,,2013-02-13 09:52:00,
2013-02-13 02:01:00,35.0,26.0,-100.00,NNW,336,8.0,21.0,70,0.00,,,0.00,0.000000,,2013-02-13 10:01:00,
2013-02-13 02:11:00,35.0,26.0,-100.00,NNW,336,8.0,21.0,70,0.00,,,0.00,0.000000,,2013-02-13 10:11:00,
2013-02-13 02:21:00,35.0,26.0,-100.00,NNW,336,8.0,21.0,70,0.00,,,0.00,0.000000,,2013-02-13 10:21:00,
2013-02-13 02:31:00,35.0,26.0,-100.00,NNW,336,8.0,21.0,70,0.00,,,0.00,0.000000,,2013-02-13 10:31:00,
2013-02-13 02:52:00,35.0,25.0,-100.00,NNW,336,8.0,26.0,66,0.00,,,0.00,0.000000,,2013-02-13 10:52:00,
2013-02-13 03:01:00,35.0,25.0,-100.00,NNW,336,8.0,26.0,66,0.00,,,0.00,0.000000,,2013-02-13 11:01:00,
2013-02-13 03:11:00,35.0,25.0,-100.00,NNW,336,8.0,26.0,66,0.00,,,0.00,0.000000,,2013-02-13 11:11:00,
2013-02-13 03:22:00,35.0,25.0,-100.00,NNW,336,8.0,26.0,66,0.00,,,0.00,0.000000,,2013-02-13 11:22:00,
2013-02-13 03:31:00,35.0,25.0,-100.00,NNW,336,8.0,26.0,66,0.00,,,0.00,0.000000,,2013-02-13 11:31:00,
2013-02-13 03:52:00,34.0,23.0,-100.00,NNW,337,10.0,36.0,65,0.00,,,-99.99,0.000000,,2013-02-13 11:52:00,
2013-02-13 04:02:00,34.0,23.0,-100.00,NNW,337,10.0,36.0,65,0.00,,,-99.99,0.000000,,2013-02-13 12:02:00,
2013-02-13 04:11:00,34.0,23.0,-100.00,NNW,337,10.0,36.0,65,0.00,,,-99.99,0.000000,,2013-02-13 12:11:00,
2013-02-13 04:21:00,34.0,23.0,-100.00,NNW,337,10.0,36.0,65,0.00,,,-99.99,0.000000,,2013-02-13 12:21:00,
2013-02-13 04:31:00,34.0,23.0,-100.00,NNW,337,10.0,36.0,65,0.00,,,-99.99,0.000000,,2013-02-13 12:31:00,
2013-02-13 04:52:00,34.0,22.0,-100.00,NNW,335,8.0,28.0,62,0.00,,,0.00,0.000000,,2013-02-13 12:52:00,
2013-02-13 05:02:00,34.0,22.0,-100.00,NNW,335,8.0,28.0,62,0.00,,,0.00,0.000000,,2013-02-13 13:02:00,
2013-02-13 05:11:00,34.0,22.0,-100.00,NNW,335,8.0,28.0,62,0.00,,,0.00,0.000000,,2013-02-13 13:11:00,
2013-02-13 05:21:00,34.0,22.0,-100.00,NNW,335,8.0,28.0,62,0.00,,,0.00,0.000000,,2013-02-13 13:21:00,
2013-02-13 05:31:00,34.0,22.0,-100.00,NNW,335,8.0,28.0,62,0.00,,,0.00,0.000000,,2013-02-13 13:31:00,
2013-02-13 05:52:00,33.0,21.0,-100.00,NNW,336,5.0,23.0,62,0.00,,,0.00,0.000000,,2013-02-13 13:52:00,
2013-02-13 06:01:00,33.0,21.0,-100.00,NNW,336,5.0,23.0,62,0.00,,,0.00,0.000000,,2013-02-13 14:01:00,
2013-02-13 06:11:00,33.0,21.0,-100.00,NNW,336,5.0,23.0,62,0.00,,,0.00,0.000000,,2013-02-13 14:11:00,
2013-02-13 06:21:00,33.0,21.0,-100.00,NNW,336,5.0,23.0,62,0.00,,,0.00,0.000000,,2013-02-13 14:21:00,
2013-02-13 06:31:00,33.0,21.0,-100.00,NNW,336,5.0,23.0,62,0.00,,,0.00,0.000000,,2013-02-13 14:31:00,
2013-02-13 06:52:00,32.0,21.0,-100.00,NNW,334,4.0,18.0,63,0.00,,,0.00,0.000000,,2013-02-13 14:52:00,
2013-02-13 07:01:00,32.0,21.0,-100.00,NNW,334,4.0,18.0,63,0.00,,,0.00,0.000000,,2013-02-13 15:01:00,
2013-02-13 07:11:00,32.0,21.0,-100.00,NNW,334,4.0,18.0,63,0.00,,,0.00,0.000000,,2013-02-13 15:11:00,
2013-02-13 07:21:00,32.0,21.0,-100.00,NNW,334,4.0,18.0,63,0.00,,,0.00,0.000000,,2013-02-13 15:21:00,
2013-02-13 07:31:00,32.0,21.0,-100.00,NNW,334,4.0,18.0,63,0.00,,,0.00,0.000000,,2013-02-13 15:31:00,
2013-02-13 07:52:00,29.0,19.0,-100.00,NNW,335,3.0,7.0,67,0.00,,,0.00,2.000000,,2013-02-13 15:52:00,
2013-02-13 08:01:00,29.0,19.0,-100.00,NNW,335,3.0,7.0,67,0.00,,,0.00,2.000000,,2013-02-13 16:01:00,
2013-02-13 08:21:00,29.0,19.0,-100.00,NNW,335,3.0,7.0,67,0.00,,,0.00,2.000000,,2013-02-13 16:21:00,
2013-02-13 08:31:00,29.0,19.0,-100.00,NNW,335,3.0,7.0,67,0.00,,,0.00,2.000000,,2013-02-13 16:31:00,
2013-02-13 08:52:00,30.0,19.0,-100.00,NNW,334,3.0,9.0,64,-99.99,,,0.00,21.000000,,2013-02-13 16:52:00,
2013-02-13 09:01:00,30.0,19.0,-100.00,NNW,334,3.0,9.0,64,-99.99,,,0.00,21.000000,,2013-02-13 17:01:00,
2013-02-13 09:52:00,34.0,20.0,-100.00,NNW,334,3.0,11.0,56,-99.99,,,0.00,35.000000,,2013-02-13 17:52:00,
2013-02-13 10:01:00,34.0,20.0,-100.00,NNW,334,3.0,11.0,56,-99.99,,,0.00,35.000000,,2013-02-13 18:01:00,
2013-02-13 10:52:00,37.0,20.0,-100.00,NNW,335,3.0,9.0,50,-99.99,,,0.00,142.000000,,2013-02-13 18:52:00,
2013-02-13 11:01:00,37.0,20.0,-100.00,NNW,335,3.0,9.0,50,-99.99,,,0.00,142.000000,,2013-02-13 19:01:00,
2013-02-13 11:11:00,37.0,20.0,-100.00,NNW,335,3.0,9.0,50,-99.99,,,0.00,142.000000,,2013-02-13 19:11:00,
2013-02-13 11:21:00,37.0,20.0,-100.00,NNW,335,3.0,9.0,50,-99.99,,,0.00,142.000000,,2013-02-13 19:21:00,
2013-02-13 11:31:00,37.0,20.0,-100.00,NNW,335,3.0,9.0,50,-99.99,,,0.00,142.000000,,2013-02-13 19:31:00,
2013-02-13 11:52:00,38.0,22.0,-100.00,NNW,334,3.0,12.0,52,0.00,,,0.00,297.000000,,2013-02-13 19:52:00,
2013-02-13 12:02:00,38.0,22.0,-100.00,NNW,334,3.0,12.0,52,0.00,,,0.00,297.000000,,2013-02-13 20:02:00,
2013-02-13 12:11:00,38.0,22.0,-100.00,NNW,334,3.0,12.0,52,0.00,,,0.00,297.000000,,2013-02-13 20:11:00,
2013-02-13 12:21:00,38.0,22.0,-100.00,NNW,334,3.0,12.0,52,0.00,,,0.00,297.000000,,2013-02-13 20:21:00,
2013-02-13 12:31:00,38.0,22.0,-100.00,NNW,334,3.0,12.0,52,0.00,,,0.00,297.000000,,2013-02-13 20:31:00,
2013-02-13 12:52:00,42.0,24.0,-100.00,NNW,335,2.0,8.0,49,0.00,,,0.00,376.000000,,2013-02-13 20:52:00,
2013-02-13 13:01:00,42.0,24.0,-100.00,NNW,335,2.0,8.0,49,0.00,,,0.00,376.000000,,2013-02-13 21:01:00,
2013-02-13 13:11:00,42.0,24.0,-100.00,NNW,335,2.0,8.0,49,0.00,,,0.00,376.000000,,2013-02-13 21:11:00,
2013-02-13 13:21:00,42.0,24.0,-100.00,NNW,335,2.0,8.0,49,0.00,,,0.00,376.000000,,2013-02-13 21:21:00,
2013-02-13 13:31:00,42.0,24.0,-100.00,NNW,335,2.0,8.0,49,0.00,,,0.00,376.000000,,2013-02-13 21:31:00,
2013-02-13 13:52:00,44.0,23.0,-100.00,NNW,334,4.0,12.0,43,0.00,,,0.00,526.000000,,2013-02-13 21:52:00,
2013-02-13 14:02:00,44.0,23.0,-100.00,NNW,334,4.0,12.0,43,0.00,,,0.00,526.000000,,2013-02-13 22:02:00,
2013-02-13 14:11:00,44.0,23.0,-100.00,NNW,334,4.0,12.0,43,0.00,,,0.00,526.000000,,2013-02-13 22:11:00,
2013-02-13 14:21:00,44.0,23.0,-100.00,NNW,334,4.0,12.0,43,0.00,,,0.00,526.000000,,2013-02-13 22:21:00,
2013-02-13 14:31:00,44.0,23.0,-100.00,NNW,334,4.0,12.0,43,0.00,,,0.00,526.000000,,2013-02-13 22:31:00,
2013-02-13 14:52:00,43.0,23.0,-100.00,NNW,335,4.0,13.0,44,0.00,,,0.00,495.000000,,2013-02-13 22:52:00,
2013-02-13 15:01:00,43.0,23.0,-100.00,NNW,335,4.0,13.0,44,0.00,,,0.00,495.000000,,2013-02-13 23:01:00,
2013-02-13 15:11:00,43.0,23.0,-100.00,NNW,335,4.0,13.0,44,0.00,,,0.00,495.000000,,2013-02-13 23:11:00,
2013-02-13 15:21:00,43.0,23.0,-100.00,NNW,335,4.0,13.0,44,0.00,,,0.00,495.000000,,2013-02-13 23:21:00,
2013-02-13 15:31:00,43.0,23.0,-100.00,NNW,335,4.0,13.0,44,0.00,,,0.00,495.000000,,2013-02-13 23:31:00,
2013-02-13 15:52:00,39.0,21.0,-100.00,NNW,335,3.0,9.0,49,0.00,,,0.00,352.000000,,2013-02-13 23:52:00,
2013-02-13 16:01:00,39.0,21.0,-100.00,NNW,335,3.0,9.0,49,0.00,,,0.00,352.000000,,2013-02-14 00:01:00,
2013-02-13 16:11:00,39.0,21.0,-100.00,NNW,335,3.0,9.0,49,0.00,,,0.00,352.000000,,2013-02-14 00:11:00,
2013-02-13 16:21:00,39.0,21.0,-100.00,NNW,335,3.0,9.0,49,0.00,,,0.00,352.000000,,2013-02-14 00:21:00,
2013-02-13 16:31:00,39.0,21.0,-100.00,NNW,335,3.0,9.0,49,0.00,,,0.00,352.000000,,2013-02-14 00:31:00,
2013-02-13 16:52:00,36.0,20.0,-100.00,NNW,335,3.0,9.0,51,0.00,,,0.00,142.000000,,2013-02-14 00:52:00,
2013-02-13 17:01:00,36.0,20.0,-100.00,NNW,335,3.0,9.0,51,0.00,,,0.00,142.000000,,2013-02-14 01:01:00,
2013-02-13 17:11:00,36.0,20.0,-100.00,NNW,335,3.0,9.0,51,0.00,,,0.00,142.000000,,2013-02-14 01:11:00,
2013-02-13 17:21:00,36.0,20.0,-100.00,NNW,335,3.0,9.0,51,0.00,,,0.00,142.000000,,2013-02-14 01:21:00,
2013-02-13 17:31:00,36.0,20.0,-100.00,NNW,335,3.0,9.0,51,0.00,,,0.00,142.000000,,2013-02-14 01:31:00,
2013-02-13 17:51:00,30.0,19.0,-100.00,NNW,335,1.0,5.0,63,0.00,,,0.00,13.000000,,2013-02-14 01:51:00,
2013-02-13 18:01:00,30.0,19.0,-100.00,NNW,335,1.0,5.0,63,0.00,,,0.00,13.000000,,2013-02-14 02:01:00,
2013-02-13 19:02:00,28.0,20.0,-100.00,NNW,335,1.0,3.0,72,-99.99,,,0.00,0.000000,,2013-02-14 03:02:00,
2013-02-13 19:52:00,27.0,20.0,-100.00,NNW,335,2.0,4.0,75,-99.99,,,0.00,0.000000,,2013-02-14 03:52:00,
2013-02-13 20:01:00,27.0,20.0,-100.00,NNW,335,2.0,4.0,75,-99.99,,,0.00,0.000000,,2013-02-14 04:01:00,
2013-02-13 20:52:00,29.0,19.0,-100.00,NNW,335,2.0,7.0,66,-99.99,,,0.00,0.000000,,2013-02-14 04:52:00,
2013-02-13 21:01:00,29.0,19.0,-100.00,NNW,335,2.0,7.0,66,-99.99,,,0.00,0.000000,,2013-02-14 05:01:00,
2013-02-13 21:11:00,29.0,19.0,-100.00,NNW,335,2.0,7.0,66,-99.99,,,0.00,0.000000,,2013-02-14 05:11:00,
2013-02-13 21:21:00,29.0,19.0,-100.00,NNW,335,2.0,7.0,66,-99.99,,,0.00,0.000000,,2013-02-14 05:21:00,
2013-02-13 21:31:00,29.0,19.0,-100.00,NNW,335,2.0,7.0,66,-99.99,,,0.00,0.000000,,2013-02-14 05:31:00,
2013-02-13 21:52:00,26.0,19.0,-100.00,NNW,335,1.0,5.0,73,0.00,,,0.00,0.000000,,2013-02-14 05:52:00,
2013-02-13 22:02:00,26.0,19.0,-100.00,NNW,335,1.0,5.0,73,0.00,,,0.00,0.000000,,2013-02-14 06:02:00,
2013-02-13 22:52:00,25.0,19.0,-100.00,NNW,335,1.0,2.0,79,-99.99,,,0.00,0.000000,,2013-02-14 06:52:00,
2013-02-13 23:01:00,25.0,19.0,-100.00,NNW,335,1.0,2.0,79,-99.99,,,0.00,0.000000,,2013-02-14 07:01:00,
2013-02-13 23:31:00,25.0,19.0,-100.00,NNW,335,1.0,2.0,79,-99.99,,,0.00,0.000000,,2013-02-14 07:31:00,
2013-02-13 23:52:00,24.0,19.0,-100.00,NNW,335,0.0,2.0,82,0.00,,,0.00,0.000000,,2013-02-14 07:52:00,